Snowfall_Accumulation
0.0 0.0 0.0 0.0 0.0 0.0 0.0 0.0 0.0 0.0 0.0 0.0 0.0 0.0 0.0 0.0 0.0 0.0 0.0 0.0 0.0 7.1 1.0 0.0 0.0 0.0 0.2 0.1 1.6 0.3 3.1 4.7 7.6 15.4 11.6 6.5 6.1 1.8 1.4 0.4 0.4 1.0 1.5 1.5 5.1 13.4 8.5 0.4 0.1 1.0 0.2 0.0 0.0 0.0
0.0 0.0 0.0 0.0 0.0 0.0 0.0 0.0 0.0 0.0 0.0 0.0 0.0 0.0 0.0 0.0 0.0 0.0 0.0 0.0 0.0 2.8 4.3 0.0 0.0 0.0 0.0 0.0 0.0 1.4 2.0 0.8 1.1 6.7 7.4 6.2 7.3 4.0 1.6 2.3 0.0 0.8 0.1 0.7 0.3 1.2 0.0 0.1 0.1 0.0 0.0 0.0 0.0 0.0
0.0 0.0 0.0 0.0 0.0 0.0 0.0 0.0 0.0 0.0 0.0 0.0 0.0 0.0 0.0 0.0 0.0 0.0 0.0 0.0 0.0 9.7 6.6 1.0 0.6 0.0 0.0 0.0 0.0 3.4 2.2 0.0 1.6 0.0 4.7 5.6 12.8 5.5 6.4 3.1 1.0 0.3 0.0 0.5 1.3 0.3 0.0 0.0 0.0 0.0 0.0 0.0 0.0 0.0
0.0 0.0 0.0 0.0 0.0 0.0 0.0 0.0 0.0 0.0 0.0 0.0 0.0 0.0 0.0 0.0 0.0 0.0 0.0 0.0 0.0 6.5 16.3 1.8 0.0 0.0 0.0 0.0 0.0 0.0 0.0 0.0 0.0 1.5 10.1 11.5 11.2 1.3 1.2 0.4 0.7 0.0 0.0 0.0 0.1 0.0 0.0 0.0 0.0 0.0 0.0 0.0 0.0 0.0
0.0 0.0 0.0 0.0 0.0 0.0 0.0 0.0 0.0 0.0 0.0 0.0 0.0 0.0 0.0 0.0 0.0 0.0 0.0 0.0 0.0 0.2 13.9 2.7 0.7 0.2 0.0 0.0 0.0 0.0 0.1 1.2 7.1 12.8 16.4 11.2 2.0 2.8 3.2 2.1 1.8 0.0 0.0 0.1 0.1 0.0 0.0 0.0 0.0 0.0 0.0 0.0 0.0 0.0
0.0 0.0 0.0 0.0 0.0 0.0 0.0 0.0 0.0 0.0 0.0 0.0 0.0 0.0 0.0 0.0 0.0 0.0 5.9 0.0 0.0 0.0 19.4 16.9 0.8 0.0 0.0 0.0 0.2 0.8 0.5 3.6 6.1 10.9 11.7 4.7 0.6 2.0 11.8 3.2 0.0 0.0 0.0 0.0 0.1 0.0 0.1 0.0 0.0 0.0 0.0 0.0 0.0 0.0
0.0 0.0 0.0 0.0 0.0 0.0 0.0 0.0 0.0 0.0 0.0 0.0 0.0 0.0 0.0 0.0 0.0 3.6 2.1 0.0 0.0 0.0 23.0 22.3 7.4 1.7 0.3 0.1 0.9 1.2 1.4 2.5 5.0 9.8 9.6 4.3 2.1 5.9 15.0 6.0 0.0 0.0 0.0 0.0 0.1 0.1 0.1 0.0 0.0 0.0 0.3 0.1 0.0 0.0
0.0 0.0 0.0 0.0 0.0 0.0 0.0 0.0 0.0 0.0 0.0 0.0 0.0 0.0 0.0 0.0 0.0 3.7 0.4 0.0 0.0 3.8 16.5 33.0 10.3 2.3 0.8 3.7 3.6 1.1 3.9 6.1 7.2 6.5 3.3 1.3 1.5 6.2 11.3 0.0 0.0 0.0 0.0 0.0 0.0 0.0 0.1 0.1 0.0 0.0 0.0 0.1 0.0 0.0
0.0 0.0 0.0 0.0 0.0 0.0 0.0 0.0 0.0 0.0 0.0 0.0 0.0 0.0 0.0 1.9 6.3 5.1 0.0 0.0 0.0 4.1 21.4 18.6 8.4 5.6 0.4 2.2 2.4 3.6 4.7 14.6 4.5 6.3 1.3 1.0 3.1 7.3 0.0 0.1 0.1 0.0 0.1 0.3 0.2 0.0 0.0 0.0 0.0 0.0 0.0 0.0 0.0 0.0
0.0 0.0 0.0 0.0 0.0 0.0 0.0 0.0 0.0 0.0 0.0 0.0 0.0 8.9 24.2 7.8 0.0 0.0 1.6 12.4 17.0 15.6 15.0 10.3 3.5 6.5 1.7 2.0 3.9 3.5 6.0 5.4 9.1 1.1 0.2 7.2 0.3 0.0 0.1 0.4 1.2 1.4 0.9 1.1 2.6 2.9 0.9 0.7 0.0 0.0 0.0 0.0 0.0 0.0
0.0 0.0 0.0 0.0 0.0 0.0 0.0 0.0 0.0 0.0 0.0 1.4 20.9 18.3 5.1 0.3 1.2 6.7 31.0 29.3 19.5 18.0 4.5 3.5 3.4 4.3 1.1 6.1 5.3 3.6 10.7 6.7 12.2 3.8 4.0 5.0 4.4 6.1 3.0 2.6 2.8 2.0 1.9 1.5 1.5 1.6 0.9 2.0 2.3 1.4 0.5 0.1 0.0 0.0
0.0 0.0 0.0 0.0 0.0 0.0 0.0 0.0 0.0 0.1 0.4 0.1 0.0 0.2 2.5 8.5 29.1 35.9 26.9 12.3 3.9 2.5 1.0 5.6 5.1 2.2 3.6 2.2 8.6 7.9 10.4 8.9 9.3 5.9 14.9 7.0 6.2 1.3 3.2 4.6 2.8 1.6 2.2 2.2 1.6 2.7 1.8 1.4 1.4 3.0 2.0 1.5 1.1 0.9
0.0 0.0 0.0 0.0 0.0 0.0 0.0 0.0 0.0 0.0 0.0 0.3 10.7 31.3 32.2 34.2 41.9 26.7 11.2 7.0 3.2 3.6 3.9 6.1 6.2 5.5 7.7 9.2 15.7 10.7 14.8 7.1 0.9 9.2 6.9 6.6 2.0 1.8 2.8 3.2 2.1 2.5 4.3 3.7 2.3 2.0 2.7 2.5 1.8 3.5 4.1 1.2 1.2 1.3
0.0 0.0 0.0 0.0 0.0 0.0 0.0 0.0 0.0 0.3 1.1 12.3 34.8 45.6 30.7 31.3 10.6 5.7 3.8 3.5 1.8 1.3 1.2 2.7 5.0 8.4 8.4 16.9 14.6 17.4 7.3 5.7 11.5 10.3 7.5 2.1 1.7 1.8 1.5 1.0 1.9 1.9 3.2 3.8 4.2 3.3 3.6 3.9 3.1 2.6 2.8 2.1 1.8 0.9
0.0 0.0 0.0 0.0 0.0 0.0 0.0 0.0 0.0 1.0 4.4 28.2 26.1 27.3 16.3 5.8 4.5 5.3 4.4 2.7 2.5 3.0 5.6 7.3 8.9 7.6 10.6 21.7 13.1 8.1 12.2 12.6 11.3 8.1 3.1 1.0 0.8 0.8 0.4 0.4 0.9 1.8 3.4 3.9 2.7 2.0 3.3 3.1 4.1 3.2 2.1 2.3 1.5 1.2
0.0 0.0 0.0 0.0 0.0 0.0 0.0 0.0 0.0 0.3 15.9 25.7 21.7 10.5 2.0 2.4 4.2 3.9 4.4 5.8 5.1 5.6 7.0 8.9 13.7 14.6 11.5 13.0 14.1 9.7 11.0 7.8 6.3 2.5 1.0 1.4 1.2 0.1 0.5 0.2 0.8 2.5 3.0 4.6 5.8 2.9 2.5 4.3 4.4 3.0 1.7 2.0 1.7 1.0
0.0 1.4 0.0 0.0 0.0 0.0 0.0 0.1 0.6 22.9 23.1 23.8 12.7 2.9 3.3 3.6 6.1 6.1 6.0 6.2 5.0 8.8 12.6 13.2 17.7 8.9 10.0 11.2 8.9 5.2 5.9 3.7 3.0 2.0 1.1 0.8 2.0 1.9 1.4 0.7 0.8 1.8 1.8 3.7 6.8 4.1 4.3 5.5 6.6 5.9 4.2 2.0 1.7 2.2
0.2 0.0 0.0 0.0 0.0 0.0 2.4 5.7 14.5 28.7 29.5 9.4 4.8 3.5 2.5 3.9 4.6 5.4 6.4 5.3 9.0 12.3 13.4 18.6 10.6 11.0 7.2 5.6 2.3 2.9 2.7 1.9 2.1 3.2 3.4 2.8 2.5 2.0 1.9 1.9 1.4 1.8 3.1 4.7 7.3 5.7 6.2 7.4 7.3 5.7 4.4 4.7 4.3 4.5
0.4 0.0 0.0 0.0 0.0 2.1 25.1 27.0 16.9 26.5 7.7 3.2 2.9 2.9 2.9 3.9 4.7 5.9 6.2 6.5 7.1 7.4 10.5 16.3 17.5 8.9 4.0 3.1 3.2 1.9 3.5 4.5 5.7 4.3 3.6 3.2 2.7 2.3 2.1 2.5 2.4 1.6 2.4 4.0 4.5 5.6 6.2 6.0 5.2 6.1 4.8 3.5 5.0 4.3
0.0 0.0 0.0 0.0 0.0 15.6 33.5 28.2 11.7 8.5 4.5 2.7 3.0 3.8 3.2 3.4 4.5 5.2 7.3 8.8 9.3 11.5 18.8 17.1 4.1 3.9 4.6 2.5 4.1 5.3 3.9 4.2 6.9 6.6 4.0 4.1 3.8 3.3 3.3 2.9 2.6 2.3 2.0 3.0 4.3 4.5 7.9 6.9 6.4 7.2 6.1 6.0 7.2 6.6
1.4 7.3 2.7 0.6 6.7 20.2 20.8 17.7 9.7 5.0 2.9 4.1 4.6 3.2 3.9 3.6 4.9 7.1 8.0 7.8 13.9 15.9 9.3 5.2 4.5 4.2 4.0 4.1 4.1 5.2 4.4 5.3 8.2 10.4 9.2 8.1 5.6 5.6 5.9 3.7 2.3 2.2 3.1 3.7 5.1 6.5 9.4 8.7 7.7 7.1 7.4 7.6 7.9 8.6
9.7 4.0 13.9 9.2 37.3 37.2 25.2 9.7 5.4 3.8 3.1 4.5 4.3 3.5 5.3 6.4 7.1 8.5 8.0 8.6 12.5 7.8 6.3 6.9 6.8 6.3 4.8 5.4 7.2 7.4 8.0 7.0 6.8 7.4 6.2 8.9 9.6 6.9 7.9 6.6 4.1 4.3 4.4 6.4 7.5 8.8 8.8 8.7 9.5 10.2 9.4 10.7 9.9 11.1
4.1 10.5 36.5 38.3 45.9 40.6 25.0 7.5 4.5 4.7 5.0 6.2 4.7 6.1 6.7 6.6 7.0 6.4 8.6 8.3 7.8 8.3 7.7 7.7 7.8 9.7 9.5 8.4 7.8 7.8 8.6 8.8 7.4 6.7 7.4 7.3 7.4 7.7 8.9 8.7 8.6 11.8 10.3 11.0 11.0 12.2 11.1 10.0 10.4 9.6 9.7 8.9 7.8 10.2
2.2 36.7 50.9 49.0 34.1 30.6 18.1 16.5 11.0 6.9 7.8 7.2 6.5 5.0 4.8 4.5 6.0 7.0 7.5 6.5 7.5 7.9 7.0 7.5 7.6 6.7 5.6 6.3 7.7 8.7 10.1 9.6 8.2 6.6 9.2 12.4 7.1 7.2 7.4 9.4 10.5 12.5 13.5 12.9 12.1 11.6 10.0 10.5 10.6 11.6 9.8 10.1 9.1 7.9
60.4 73.1 50.4 51.4 28.0 17.6 10.9 9.2 7.0 5.8 5.1 5.1 3.6 3.7 3.9 4.7 6.1 7.2 5.9 7.1 6.9 7.7 7.8 7.6 7.7 10.0 12.0 6.2 7.8 8.4 9.3 14.4 14.3 11.9 7.5 13.1 12.7 8.5 7.2 7.4 8.3 9.7 11.3 12.7 10.7 9.7 9.8 10.6 11.5 11.0 11.7 10.0 9.0 7.7
68.5 38.9 28.5 13.0 8.6 3.5 2.4 2.3 2.4 2.1 1.2 3.2 2.5 2.2 2.2 5.5 7.8 6.8 6.4 7.6 6.9 7.2 9.0 9.5 10.0 7.1 6.1 10.4 12.7 10.5 9.8 13.8 15.7 12.6 8.2 12.1 16.6 18.4 14.1 11.4 9.2 7.9 10.7 11.6 11.5 9.3 9.7 9.0 9.1 9.3 12.1 11.3 7.8 8.1
56.0 31.2 11.6 2.7 1.9 1.7 1.6 1.7 1.6 1.9 2.8 3.4 3.2 2.9 3.9 8.8 3.6 5.4 6.6 8.0 8.9 7.8 9.6 10.6 12.1 12.5 10.7 8.3 7.3 8.5 13.5 17.5 21.5 17.5 14.0 13.9 13.1 14.4 16.8 18.2 13.6 10.4 12.8 13.1 12.1 9.6 9.2 8.4 7.5 5.3 7.2 8.6 8.9 7.1
18.5 8.4 4.5 5.0 5.1 4.0 4.7 3.3 2.7 2.1 2.7 2.1 3.5 4.1 5.7 4.3 3.6 4.5 5.7 6.2 8.3 8.2 9.3 10.1 11.2 12.4 13.8 13.2 13.3 13.2 12.9 14.5 13.8 12.1 10.4 10.2 10.9 11.0 12.3 12.4 12.3 11.4 11.5 10.1 9.5 10.0 9.1 7.5 7.1 6.5 6.1 6.6 9.2 8.9
6.2 3.0 2.7 3.9 3.8 3.3 3.1 2.4 2.3 1.6 1.3 1.5 1.2 1.0 1.4 1.7 4.5 5.4 5.1 6.4 6.2 7.1 7.1 8.0 6.1 9.0 10.4 11.9 13.2 15.8 16.8 16.6 14.8 12.5 10.9 10.0 8.1 7.4 10.6 11.8 11.6 11.2 10.9 12.3 10.3 10.2 9.3 8.6 9.0 8.7 8.2 8.6 10.4 11.6
1.2 1.0 1.2 1.5 2.6 2.7 2.2 3.0 3.1 3.5 3.7 3.6 1.5 1.1 1.4 2.7 5.6 6.2 5.4 4.5 4.9 6.3 7.6 8.7 8.8 9.0 9.8 9.7 9.9 9.6 11.6 12.8 17.8 19.2 17.2 13.2 13.6 16.1 16.1 14.0 13.4 13.1 11.5 9.9 12.4 15.6 10.3 10.8 11.9 11.7 11.0 10.9 10.5 10.5
0.0 0.0 0.1 0.2 0.5 1.1 1.7 1.0 1.5 1.3 2.8 2.8 2.7 3.0 3.3 4.1 4.6 5.9 4.6 5.3 6.0 6.2 6.3 5.8 5.8 8.2 10.3 10.1 12.0 11.8 8.3 8.8 11.3 11.6 11.8 14.3 13.4 13.4 12.9 14.1 13.7 13.1 12.4 11.3 10.1 10.5 10.1 9.7 9.1 9.5 9.6 10.2 10.1 9.0
0.0 0.1 0.0 0.5 0.8 1.6 1.4 0.7 0.4 0.0 0.2 0.6 2.2 2.9 3.7 3.8 3.3 2.9 2.9 2.3 2.2 3.0 6.0 7.6 8.3 8.1 12.1 14.9 15.6 16.8 18.1 16.6 11.6 12.5 13.3 12.9 11.6 10.5 11.4 11.5 13.0 12.5 12.3 11.8 11.2 11.7 10.4 10.4 11.8 11.2 11.4 11.9 11.9 10.8
2.3 1.1 0.9 0.5 2.2 2.1 1.7 1.0 1.0 0.8 0.7 0.5 0.8 1.7 2.1 1.5 1.5 1.3 1.7 3.5 6.9 7.7 7.6 9.3 10.6 12.7 14.2 15.6 15.5 15.4 13.7 12.2 13.3 12.1 12.0 11.5 10.7 10.3 10.5 10.5 11.8 11.6 10.6 10.8 12.3 12.7 12.9 11.7 12.4 12.1 11.7 11.6 11.9 11.2